Regional Weather Roundup
Issued by NWS Glasgow, MT

Home | Current Version | Previous Version | Text Only | Print | Product List | Glossary On
Versions: 1 2 3 4 5 6 7 8 9 10 11 12 13 14 15 16 17 18 19 20 21 22 23 24 25 26 27 28 29 30 31 32 33 34 35 36 37 38 39 40 41 42 43 44 45 46 47 48 49 50
000
ASUS45 KGGW 241415
RWRGGW
HOURLY WEATHER ROUNDUP FOR NORTHEAST MONTANA
NATIONAL WEATHER SERVICE GLASGOW MONTANA
800 AM MDT SUN MAY 24 2015

NOTE: "FAIR" INDICATES FEW OR NO CLOUDS BELOW 12,000 FEET WITH NO
SIGNIFICANT WEATHER AND/OR OBSTRUCTIONS TO VISISBILITY.

NORTHEAST MONTANA


CITY           SKY/WX    TMP DP  RH WIND       PRES   REMARKS
GLASGOW        CLOUDY    51  43  74 NW3       30.07S
WOLF POINT     PTSUNNY   56  45  66 CALM      30.07F
JORDAN           N/A     56  46  69 E7        30.07S
WINNETT          N/A     50  47  89 NW3         N/A
SIDNEY         SUNNY     57  46  67 CALM      30.07S
GLENDIVE       SUNNY     55  46  71 E7        30.08R
MALTA            N/A     49  44  83 W1          N/A
SCOBEY           N/A     50  38  63 E5        30.06

FORT PECK REPORTS


CITY           SKY/WX    TMP DP  RH WIND       PRES   REMARKS
FORT PECK        N/A     50  43  77 NW3         N/A
THE PINES        N/A     52  47  83 S1          N/A

SOUTHEAST MONTANA


CITY           SKY/WX    TMP DP  RH WIND       PRES   REMARKS
BILLINGS       LGT RAIN  49  47  93 N8        30.05S FOG
MILES CITY     PTSUNNY   54  49  83 NE10      30.05R
BAKER          PTSUNNY   52  50  93 E10       30.06S
LIVINGSTON     CLOUDY    49  45  86 E10       30.06F

CENTRAL MONTANA


CITY           SKY/WX    TMP DP  RH WIND       PRES   REMARKS
HAVRE          SUNNY     51  43  74 CALM      30.10S
LEWISTOWN      CLOUDY    47  43  86 CALM      30.10S
GREAT FALLS    MOSUNNY   49  48  97 NE6       30.10S
CUT BANK       SUNNY     48  44  86 CALM      30.12S
HELENA         CLOUDY    53  45  74 W5        30.08R
BUTTE          CLOUDY    46  40  79 NW3       30.09S
BOZEMAN        PTSUNNY   50  46  86 VRB3      30.06S

WESTERN MONTANA


CITY           SKY/WX    TMP DP  RH WIND       PRES   REMARKS
MISSOULA       MOSUNNY   50  43  77 CALM      30.08S
KALISPELL      NOT AVBL

NORTH DAKOTA


CITY           SKY/WX    TMP DP  RH WIND       PRES   REMARKS
WILLISTON      MOSUNNY   53  44  71 NE5       30.06F
DICKINSON      LGT RAIN  51  49  92 E8        30.06R FOG
MINOT          PTSUNNY   58  47  66 S3        30.06F
BISMARCK       CLOUDY    60  53  77 E10       30.06S

SOUTHERN SASKATCHEWAN


CITY           SKY/WX    TMP DP  RH WIND       PRES   REMARKS
REGINA         MOSUNNY   61  41  48 NW3       30.07F
ESTEVAN        MOSUNNY   61  45  55 SW3       30.06F
SWIFT CURRENT  SUNNY     61  36  39 NW7       30.09F




USA.gov is the U.S. government's official web portal to all federal, state and local government web resources and services.